| time (UTC) | temp F | wind direction | speed MPH | gust MPH | rain 1hr in | rain 24hr in | rain mn in | humidity % | barometer mb |
| 20260505140229 | 72 | 196 | 9.0 | 16.0 | 0.00 | 0.00 | 0.00 | 84 | 1003.9 |
| 20260505130153 | 70 | 181 | 8.0 | 13.0 | 0.00 | 0.00 | 0.00 | 85 | 1003.9 |
| 20260505124642 | 70 | 189 | 11.0 | 14.0 | 0.00 | 0.00 | 0.00 | 86 | 1003.6 |
| 20260505124139 | 70 | 179 | 10.0 | 14.0 | 0.00 | 0.00 | 0.00 | 86 | 1003.7 |
| 20260505123635 | 70 | 150 | 7.0 | 13.0 | 0.00 | 0.00 | 0.00 | 86 | 1003.7 |
| 20260505123132 | 70 | 190 | 8.0 | 14.0 | 0.00 | 0.00 | 0.00 | 85 | 1003.8 |
| 20260505122629 | 70 | 165 | 10.0 | 14.0 | 0.00 | 0.00 | 0.00 | 85 | 1003.7 |
| 20260505122126 | 70 | 200 | 7.0 | 13.0 | 0.00 | 0.00 | 0.00 | 85 | 1003.5 |
| 20260505121622 | 70 | 174 | 8.0 | 15.0 | 0.00 | 0.00 | 0.00 | 85 | 1003.3 |
| 20260505121119 | 70 | 194 | 10.0 | 14.0 | 0.00 | 0.00 | 0.00 | 85 | 1003.4 |
| 20260505120615 | 70 | 162 | 14.0 | 17.0 | 0.00 | 0.00 | 0.00 | 85 | 1003.2 |
| 20260505120112 | 70 | 143 | 7.0 | 17.0 | 0.00 | 0.00 | 0.00 | 86 | 1003.3 |
| 20260505115606 | 70 | 162 | 7.0 | 15.0 | 0.00 | 0.00 | 0.00 | 86 | 1003.4 |
| 20260505115104 | 69 | 180 | 11.0 | 15.0 | 0.00 | 0.00 | 0.00 | 86 | 1003.5 |
| 20260505114600 | 69 | 202 | 6.0 | 13.0 | 0.00 | 0.00 | 0.00 | 85 | 1003.2 |
| 20260505114056 | 69 | 153 | 8.0 | 13.0 | 0.00 | 0.00 | 0.00 | 85 | 1003.2 |
| 20260505113553 | 69 | 180 | 9.0 | 15.0 | 0.00 | 0.00 | 0.00 | 85 | 1003.1 |
| 20260505113050 | 69 | 178 | 9.0 | 14.0 | 0.00 | 0.00 | 0.00 | 86 | 1003.0 |
| 20260505112546 | 69 | 200 | 7.0 | 19.0 | 0.00 | 0.00 | 0.00 | 86 | 1003.2 |
| 20260505112045 | 69 | 193 | 10.0 | 14.0 | 0.00 | 0.00 | 0.00 | 86 | 1002.9 |
| 20260505111538 | 69 | 149 | 7.0 | 14.0 | 0.00 | 0.00 | 0.00 | 86 | 1002.7 |
| 20260505111035 | 69 | 178 | 10.0 | 13.0 | 0.00 | 0.00 | 0.00 | 85 | 1002.5 |
| 20260505110531 | 69 | 165 | 11.0 | 17.0 | 0.00 | 0.00 | 0.00 | 85 | 1002.8 |
| 20260505102004 | 70 | 170 | 9.0 | 24.0 | 0.00 | 0.00 | 0.00 | 85 | 1003.2 |
| 20260505101501 | 70 | 202 | 11.0 | 17.0 | 0.00 | 0.00 | 0.00 | 85 | 1002.9 |
| 20260505100958 | 70 | 156 | 9.0 | 14.0 | 0.00 | 0.00 | 0.00 | 85 | 1003.0 |
| 20260505100455 | 70 | 165 | 14.0 | 16.0 | 0.00 | 0.00 | 0.00 | 84 | 1003.3 |
| 20260505095951 | 70 | 164 | 10.0 | 17.0 | 0.00 | 0.00 | 0.00 | 84 | 1003.3 |
| 20260505095448 | 70 | 188 | 14.0 | 16.0 | 0.00 | 0.00 | 0.00 | 84 | 1003.3 |
| 20260505094944 | 70 | 192 | 12.0 | 18.0 | 0.00 | 0.00 | 0.00 | 84 | 1003.4 |
| 20260505094441 | 70 | 169 | 14.0 | 17.0 | 0.00 | 0.00 | 0.00 | 84 | 1003.3 |
| 20260505093937 | 70 | 178 | 9.0 | 16.0 | 0.00 | 0.00 | 0.00 | 85 | 1003.6 |
| 20260505093434 | 70 | 221 | 5.0 | 17.0 | 0.00 | 0.00 | 0.00 | 85 | 1003.6 |
| 20260505092931 | 70 | 221 | 9.0 | 13.0 | 0.00 | 0.00 | 0.00 | 84 | 1003.7 |
| 20260505092429 | 70 | 173 | 10.0 | 15.0 | 0.00 | 0.00 | 0.00 | 85 | 1003.4 |
| 20260505091926 | 70 | 186 | 12.0 | 17.0 | 0.00 | 0.00 | 0.00 | 85 | 1003.5 |
| 20260505091424 | 70 | 183 | 7.0 | 13.0 | 0.00 | 0.00 | 0.00 | 84 | 1003.4 |
| 20260505090921 | 70 | 173 | 10.0 | 18.0 | 0.00 | 0.00 | 0.00 | 85 | 1003.5 |
| 20260505090420 | 70 | 145 | 9.0 | 15.0 | 0.00 | 0.00 | 0.00 | 85 | 1003.6 |
| 20260505085917 | 70 | 188 | 12.0 | 16.0 | 0.00 | 0.00 | 0.00 | 84 | 1003.4 |
| 20260505085415 | 70 | 200 | 11.0 | 17.0 | 0.00 | 0.00 | 0.00 | 84 | 1003.3 |
| 20260505084912 | 70 | 177 | 12.0 | 17.0 | 0.00 | 0.00 | 0.00 | 84 | 1003.5 |
| 20260505084410 | 69 | 199 | 10.0 | 19.0 | 0.00 | 0.00 | 0.00 | 85 | 1003.4 |
| 20260505083908 | 69 | 165 | 13.0 | 15.0 | 0.00 | 0.00 | 0.00 | 85 | 1003.5 |
| 20260505083405 | 69 | 122 | 8.0 | 14.0 | 0.00 | 0.00 | 0.00 | 85 | 1003.4 |
| 20260505082901 | 69 | 182 | 9.0 | 18.0 | 0.00 | 0.00 | 0.00 | 85 | 1003.3 |
| 20260505082357 | 69 | 201 | 14.0 | 17.0 | 0.00 | 0.00 | 0.00 | 85 | 1003.4 |
| 20260505081854 | 69 | 177 | 10.0 | 16.0 | 0.00 | 0.00 | 0.00 | 85 | 1003.5 |
| 20260505081351 | 69 | 177 | 13.0 | 15.0 | 0.00 | 0.00 | 0.00 | 85 | 1003.4 |
| 20260505080848 | 69 | 173 | 12.0 | 15.0 | 0.00 | 0.00 | 0.00 | 85 | 1003.5 |
| 20260505080344 | 69 | 145 | 8.0 | 14.0 | 0.00 | 0.00 | 0.00 | 84 | 1003.6 |
| 20260505075839 | 69 | 204 | 7.0 | 14.0 | 0.00 | 0.00 | 0.00 | 84 | 1003.6 |
| 20260505075336 | 69 | 173 | 12.0 | 17.0 | 0.00 | 0.00 | 0.00 | 84 | 1003.8 |
| 20260505074833 | 69 | 172 | 6.0 | 16.0 | 0.00 | 0.00 | 0.00 | 84 | 1003.8 |
| 20260505074330 | 69 | 186 | 8.0 | 15.0 | 0.00 | 0.00 | 0.00 | 84 | 1004.0 |
| 20260505073828 | 69 | 183 | 11.0 | 16.0 | 0.00 | 0.00 | 0.00 | 84 | 1004.0 |
| 20260505073326 | 69 | 197 | 9.0 | 16.0 | 0.00 | 0.00 | 0.00 | 83 | 1004.0 |
| 20260505072822 | 69 | 148 | 14.0 | 17.0 | 0.00 | 0.00 | 0.00 | 83 | 1004.1 |
| 20260505072319 | 70 | 162 | 9.0 | 15.0 | 0.00 | 0.00 | 0.00 | 82 | 1004.2 |
| 20260505071815 | 70 | 178 | 13.0 | 16.0 | 0.00 | 0.00 | 0.00 | 82 | 1004.2 |
| 20260505071311 | 70 | 216 | 8.0 | 14.0 | 0.00 | 0.00 | 0.00 | 82 | 1004.2 |
| 20260505070810 | 70 | 185 | 13.0 | 16.0 | 0.00 | 0.00 | 0.00 | 81 | 1004.3 |
| 20260505070306 | 70 | 169 | 9.0 | 15.0 | 0.00 | 0.00 | 0.00 | 81 | 1004.4 |
| 20260505065800 | 70 | 203 | 9.0 | 14.0 | 0.00 | 0.00 | 0.00 | 81 | 1004.4 |
| 20260505065258 | 70 | 185 | 9.0 | 15.0 | 0.00 | 0.00 | 0.00 | 81 | 1004.3 |
| 20260505064755 | 70 | 167 | 13.0 | 17.0 | 0.00 | 0.00 | 0.00 | 81 | 1004.3 |
| 20260505064252 | 71 | 180 | 9.0 | 16.0 | 0.00 | 0.00 | 0.00 | 80 | 1004.4 |
| 20260505063750 | 71 | 168 | 12.0 | 16.0 | 0.00 | 0.00 | 0.00 | 80 | 1004.3 |
| 20260505063246 | 70 | 198 | 12.0 | 18.0 | 0.00 | 0.00 | 0.00 | 80 | 1004.3 |
| 20260505062743 | 71 | 188 | 11.0 | 18.0 | 0.00 | 0.00 | 0.00 | 80 | 1004.3 |
| 20260505062240 | 71 | 159 | 11.0 | 15.0 | 0.00 | 0.00 | 0.00 | 80 | 1004.7 |
| 20260505061737 | 71 | 191 | 12.0 | 15.0 | 0.00 | 0.00 | 0.00 | 79 | 1004.5 |
| 20260505061235 | 71 | 164 | 13.0 | 17.0 | 0.00 | 0.00 | 0.00 | 79 | 1004.7 |
| 20260505060732 | 71 | 167 | 11.0 | 15.0 | 0.00 | 0.00 | 0.00 | 79 | 1004.7 |
| 20260505060229 | 71 | 159 | 10.0 | 15.0 | 0.00 | 0.00 | 0.00 | 79 | 1004.6 |
| 20260505055724 | 71 | 191 | 9.0 | 16.0 | 0.00 | 0.00 | 0.00 | 78 | 1004.7 |
| 20260505055221 | 71 | 210 | 7.0 | 16.0 | 0.00 | 0.00 | 0.00 | 78 | 1004.7 |
| 20260505054718 | 71 | 181 | 9.0 | 16.0 | 0.00 | 0.00 | 0.00 | 78 | 1004.8 |
| 20260505054216 | 71 | 169 | 9.0 | 16.0 | 0.00 | 0.00 | 0.00 | 77 | 1004.9 |
| 20260505053714 | 71 | 165 | 7.0 | 13.0 | 0.00 | 0.00 | 0.00 | 77 | 1004.9 |
| 20260505053210 | 71 | 199 | 8.0 | 15.0 | 0.00 | 0.00 | 0.00 | 77 | 1005.0 |
| 20260505052708 | 71 | 171 | 10.0 | 17.0 | 0.00 | 0.00 | 0.00 | 76 | 1004.9 |
| 20260505052204 | 71 | 173 | 13.0 | 16.0 | 0.00 | 0.00 | 0.00 | 76 | 1004.9 |
| 20260505051701 | 71 | 154 | 8.0 | 13.0 | 0.00 | 0.00 | 0.00 | 76 | 1005.0 |
| 20260505051159 | 71 | 152 | 9.0 | 15.0 | 0.00 | 0.00 | 0.00 | 76 | 1005.0 |
| 20260505050657 | 71 | 165 | 10.0 | 15.0 | 0.00 | 0.00 | 0.00 | 76 | 1005.2 |
| 20260505050156 | 71 | 180 | 7.0 | 15.0 | 0.00 | 0.00 | 0.00 | 76 | 1005.0 |
| 20260505041631 | 71 | 162 | 11.0 | 15.0 | 0.00 | 0.00 | 0.00 | 74 | 1005.3 |
| 20260505041128 | 71 | 162 | 10.0 | 13.0 | 0.00 | 0.00 | 0.00 | 74 | 1005.6 |
| 20260505040625 | 71 | 145 | 6.0 | 15.0 | 0.00 | 0.00 | 0.00 | 74 | 1005.4 |
| 20260505040122 | 71 | 167 | 11.0 | 14.0 | 0.00 | 0.00 | 0.00 | 73 | 1005.3 |
| 20260505035618 | 71 | 147 | 11.0 | 15.0 | 0.00 | 0.00 | 0.00 | 73 | 1005.3 |
| 20260505035115 | 72 | 214 | 9.0 | 14.0 | 0.00 | 0.00 | 0.00 | 73 | 1005.1 |
| 20260505034612 | 71 | 144 | 9.0 | 16.0 | 0.00 | 0.00 | 0.00 | 73 | 1005.2 |
| 20260505034108 | 72 | 153 | 11.0 | 13.0 | 0.00 | 0.00 | 0.00 | 73 | 1005.2 |
| 20260505033605 | 72 | 153 | 9.0 | 14.0 | 0.00 | 0.00 | 0.00 | 73 | 1005.4 |
| 20260505033104 | 72 | 152 | 7.0 | 13.0 | 0.00 | 0.00 | 0.00 | 73 | 1005.4 |
| 20260505032601 | 72 | 170 | 10.0 | 11.0 | 0.00 | 0.00 | 0.00 | 73 | 1005.4 |
| 20260505032057 | 71 | 150 | 7.0 | 11.0 | 0.00 | 0.00 | 0.00 | 72 | 1005.3 |
| 20260505031555 | 71 | 157 | 8.0 | 13.0 | 0.00 | 0.00 | 0.00 | 73 | 1005.4 |
| 20260505031051 | 71 | 154 | 10.0 | 11.0 | 0.00 | 0.00 | 0.00 | 73 | 1005.5 |
| 20260505030548 | 71 | 161 | 11.0 | 14.0 | 0.00 | 0.00 | 0.00 | 72 | 1005.5 |
| 20260505030044 | 72 | 160 | 8.0 | 10.0 | 0.00 | 0.00 | 0.00 | 72 | 1005.6 |
| 20260505025540 | 71 | 140 | 5.0 | 10.0 | 0.00 | 0.00 | 0.00 | 72 | 1005.4 |
| 20260505025039 | 72 | 156 | 8.0 | 10.0 | 0.00 | 0.00 | 0.00 | 72 | 1005.3 |
| 20260505024535 | 72 | 143 | 6.0 | 10.0 | 0.00 | 0.00 | 0.00 | 72 | 1005.4 |
| 20260505024032 | 72 | 158 | 7.0 | 9.0 | 0.00 | 0.00 | 0.00 | 71 | 1005.4 |
| 20260505023529 | 72 | 170 | 4.0 | 9.0 | 0.00 | 0.00 | 0.00 | 71 | 1005.5 |
| 20260505023027 | 72 | 161 | 9.0 | 14.0 | 0.00 | 0.00 | 0.00 | 71 | 1005.5 |
| 20260505022525 | 72 | 155 | 6.0 | 8.0 | 0.00 | 0.00 | 0.00 | 71 | 1005.6 |
| 20260505022022 | 72 | 164 | 7.0 | 9.0 | 0.00 | 0.00 | 0.00 | 70 | 1005.3 |
| 20260505021518 | 72 | 160 | 9.0 | 9.0 | 0.00 | 0.00 | 0.00 | 70 | 1005.2 |
| 20260505021015 | 72 | 172 | 8.0 | 9.0 | 0.00 | 0.00 | 0.00 | 70 | 1005.2 |
| 20260505020515 | 72 | 153 | 4.0 | 8.0 | 0.00 | 0.00 | 0.00 | 70 | 1005.4 |
| 20260505020012 | 73 | 154 | 6.0 | 10.0 | 0.00 | 0.00 | 0.00 | 70 | 1005.4 |
| 20260505015509 | 73 | 149 | 5.0 | 9.0 | 0.00 | 0.00 | 0.00 | 69 | 1005.4 |
| 20260505015006 | 73 | 156 | 6.0 | 8.0 | 0.00 | 0.00 | 0.00 | 69 | 1005.4 |
| 20260505014503 | 73 | 157 | 7.0 | 10.0 | 0.00 | 0.00 | 0.00 | 69 | 1005.2 |
| 20260505014000 | 73 | 139 | 8.0 | 8.0 | 0.00 | 0.00 | 0.00 | 68 | 1005.3 |
| 20260505013457 | 73 | 153 | 7.0 | 11.0 | 0.00 | 0.00 | 0.00 | 67 | 1005.4 |
| 20260505012954 | 73 | 151 | 6.0 | 10.0 | 0.00 | 0.00 | 0.00 | 67 | 1005.2 |
| 20260505012452 | 74 | 154 | 6.0 | 13.0 | 0.00 | 0.00 | 0.00 | 67 | 1005.3 |
| 20260505011949 | 74 | 177 | 6.0 | 10.0 | 0.00 | 0.00 | 0.00 | 66 | 1005.1 |
| 20260505011445 | 74 | 162 | 8.0 | 14.0 | 0.00 | 0.00 | 0.00 | 66 | 1005.3 |
| 20260505010942 | 74 | 190 | 6.0 | 14.0 | 0.00 | 0.00 | 0.00 | 65 | 1005.0 |
| 20260505010437 | 75 | 169 | 7.0 | 11.0 | 0.00 | 0.00 | 0.00 | 65 | 1005.2 |
| 20260505005934 | 75 | 130 | 12.0 | 17.0 | 0.00 | 0.00 | 0.00 | 64 | 1005.3 |
| 20260505005431 | 75 | 211 | 9.0 | 15.0 | 0.00 | 0.00 | 0.00 | 64 | 1005.2 |
| 20260505004928 | 75 | 154 | 11.0 | 14.0 | 0.00 | 0.00 | 0.00 | 63 | 1005.1 |
| 20260505004425 | 75 | 171 | 10.0 | 14.0 | 0.00 | 0.00 | 0.00 | 63 | 1005.3 |
| 20260505003921 | 75 | 201 | 13.0 | 18.0 | 0.00 | 0.00 | 0.00 | 63 | 1005.1 |
| 20260505003419 | 76 | 169 | 9.0 | 14.0 | 0.00 | 0.00 | 0.00 | 63 | 1005.1 |
| 20260505002915 | 76 | 164 | 11.0 | 14.0 | 0.00 | 0.00 | 0.00 | 62 | 1005.2 |
| 20260505002412 | 76 | 139 | 9.0 | 15.0 | 0.00 | 0.00 | 0.00 | 62 | 1005.2 |
| 20260505001910 | 77 | 191 | 11.0 | 17.0 | 0.00 | 0.00 | 0.00 | 61 | 1005.5 |
| 20260505001407 | 77 | 163 | 8.0 | 16.0 | 0.00 | 0.00 | 0.00 | 61 | 1005.1 |
| 20260505000904 | 77 | 180 | 11.0 | 14.0 | 0.00 | 0.00 | 0.00 | 61 | 1005.2 |
| 20260505000402 | 77 | 192 | 12.0 | 14.0 | 0.00 | 0.00 | 0.00 | 60 | 1005.4 |
| 20260504235858 | 77 | 173 | 13.0 | 18.0 | 0.00 | 0.00 | 0.00 | 60 | 1005.2 |
| 20260504235355 | 77 | 201 | 9.0 | 16.0 | 0.00 | 0.00 | 0.00 | 60 | 1005.3 |
| 20260504234851 | 77 | 197 | 14.0 | 16.0 | 0.00 | 0.00 | 0.00 | 60 | 1005.6 |
| 20260504234349 | 77 | 180 | 9.0 | 13.0 | 0.00 | 0.00 | 0.00 | 60 | 1005.4 |
| 20260504233846 | 77 | 163 | 11.0 | 16.0 | 0.00 | 0.00 | 0.00 | 59 | 1005.5 |
| 20260504233341 | 77 | 187 | 13.0 | 17.0 | 0.00 | 0.00 | 0.00 | 58 | 1005.4 |
| 20260504232839 | 77 | 178 | 11.0 | 18.0 | 0.00 | 0.00 | 0.00 | 58 | 1005.4 |
| 20260504232336 | 78 | 191 | 14.0 | 24.0 | 0.00 | 0.00 | 0.00 | 57 | 1005.5 |
| 20260504231832 | 78 | 164 | 14.0 | 19.0 | 0.00 | 0.00 | 0.00 | 57 | 1005.6 |
| 20260504231329 | 79 | 175 | 12.0 | 17.0 | 0.00 | 0.00 | 0.00 | 56 | 1005.5 |
| 20260504230825 | 79 | 196 | 10.0 | 14.0 | 0.00 | 0.00 | 0.00 | 57 | 1005.8 |
| 20260504230323 | 79 | 150 | 15.0 | 21.0 | 0.00 | 0.00 | 0.00 | 55 | 1005.9 |
| 20260504225822 | 79 | 150 | 15.0 | 18.0 | 0.00 | 0.00 | 0.00 | 55 | 1006.0 |
| 20260504225317 | 79 | 146 | 11.0 | 13.0 | 0.00 | 0.00 | 0.00 | 55 | 1006.0 |
| 20260504224815 | 79 | 167 | 11.0 | 15.0 | 0.00 | 0.00 | 0.00 | 55 | 1006.0 |
| 20260504224312 | 79 | 171 | 12.0 | 22.0 | 0.00 | 0.00 | 0.00 | 55 | 1005.9 |
| 20260504223808 | 79 | 200 | 11.0 | 18.0 | 0.00 | 0.00 | 0.00 | 55 | 1005.6 |
| 20260504223304 | 79 | 165 | 8.0 | 16.0 | 0.00 | 0.00 | 0.00 | 54 | 1005.9 |
| 20260504222801 | 79 | 173 | 11.0 | 19.0 | 0.00 | 0.00 | 0.00 | 54 | 1006.2 |
| 20260504222258 | 80 | 154 | 11.0 | 19.0 | 0.00 | 0.00 | 0.00 | 53 | 1006.0 |
| 20260504221756 | 79 | 159 | 12.0 | 16.0 | 0.00 | 0.00 | 0.00 | 53 | 1005.9 |
| 20260504221253 | 80 | 156 | 9.0 | 18.0 | 0.00 | 0.00 | 0.00 | 52 | 1006.2 |
| 20260504220749 | 80 | 159 | 12.0 | 21.0 | 0.00 | 0.00 | 0.00 | 52 | 1006.1 |
| 20260504220246 | 80 | 160 | 9.0 | 17.0 | 0.00 | 0.00 | 0.00 | 54 | 1006.3 |
| 20260504215744 | 79 | 149 | 10.0 | 15.0 | 0.00 | 0.00 | 0.00 | 54 | 1006.4 |
| 20260504215240 | 78 | 187 | 15.0 | 19.0 | 0.00 | 0.00 | 0.00 | 53 | 1006.2 |
| 20260504214736 | 79 | 172 | 10.0 | 21.0 | 0.00 | 0.00 | 0.00 | 52 | 1006.5 |
| 20260504214232 | 79 | 172 | 11.0 | 22.0 | 0.00 | 0.00 | 0.00 | 53 | 1006.4 |
| 20260504213729 | 79 | 165 | 15.0 | 18.0 | 0.00 | 0.00 | 0.00 | 52 | 1006.6 |
| 20260504213226 | 79 | 165 | 17.0 | 23.0 | 0.00 | 0.00 | 0.00 | 51 | 1006.8 |
| 20260504212723 | 79 | 188 | 18.0 | 22.0 | 0.00 | 0.00 | 0.00 | 52 | 1006.7 |
| 20260504212220 | 78 | 182 | 12.0 | 23.0 | 0.00 | 0.00 | 0.00 | 53 | 1007.1 |
| 20260504211717 | 79 | 158 | 14.0 | 19.0 | 0.00 | 0.00 | 0.00 | 51 | 1006.9 |
| 20260504211213 | 79 | 169 | 9.0 | 17.0 | 0.00 | 0.00 | 0.00 | 52 | 1007.3 |
| 20260504210711 | 79 | 201 | 10.0 | 15.0 | 0.00 | 0.00 | 0.00 | 52 | 1007.1 |
| 20260504210207 | 79 | 192 | 14.0 | 22.0 | 0.00 | 0.00 | 0.00 | 51 | 1007.3 |
| 20260504205705 | 79 | 192 | 15.0 | 18.0 | 0.00 | 0.00 | 0.00 | 51 | 1007.5 |
| 20260504205201 | 79 | 169 | 15.0 | 21.0 | 0.00 | 0.00 | 0.00 | 50 | 1007.5 |
| 20260504204700 | 79 | 141 | 10.0 | 18.0 | 0.00 | 0.00 | 0.00 | 51 | 1007.6 |
| 20260504204159 | 79 | 203 | 14.0 | 22.0 | 0.00 | 0.00 | 0.00 | 50 | 1007.8 |
| 20260504203657 | 79 | 126 | 8.0 | 22.0 | 0.00 | 0.00 | 0.00 | 51 | 1007.8 |
| 20260504203154 | 79 | 159 | 14.0 | 22.0 | 0.00 | 0.00 | 0.00 | 49 | 1007.9 |
| 20260504202654 | 79 | 138 | 14.0 | 22.0 | 0.00 | 0.00 | 0.00 | 48 | 1007.9 |
| 20260504202152 | 79 | 154 | 9.0 | 19.0 | 0.00 | 0.00 | 0.00 | 50 | 1008.4 |
| 20260504201649 | 79 | 175 | 14.0 | 19.0 | 0.00 | 0.00 | 0.00 | 48 | 1008.1 |
| 20260504201146 | 79 | 184 | 10.0 | 19.0 | 0.00 | 0.00 | 0.00 | 50 | 1008.2 |
| 20260504200643 | 78 | 136 | 13.0 | 21.0 | 0.00 | 0.00 | 0.00 | 49 | 1008.4 |
| 20260504200140 | 78 | 192 | 18.0 | 24.0 | 0.00 | 0.00 | 0.00 | 48 | 1008.5 |
| 20260504195636 | 78 | 199 | 10.0 | 19.0 | 0.00 | 0.00 | 0.00 | 49 | 1008.5 |
| 20260504195132 | 78 | 186 | 15.0 | 22.0 | 0.00 | 0.00 | 0.00 | 48 | 1008.7 |
| 20260504194629 | 78 | 182 | 11.0 | 21.0 | 0.00 | 0.00 | 0.00 | 49 | 1008.7 |
| 20260504194125 | 79 | 178 | 14.0 | 19.0 | 0.00 | 0.00 | 0.00 | 47 | 1008.6 |
| 20260504193622 | 78 | 164 | 16.0 | 21.0 | 0.00 | 0.00 | 0.00 | 47 | 1008.8 |
| 20260504193120 | 78 | 176 | 15.0 | 19.0 | 0.00 | 0.00 | 0.00 | 48 | 1009.1 |
| 20260504192618 | 78 | 141 | 12.0 | 15.0 | 0.00 | 0.00 | 0.00 | 48 | 1009.0 |
| 20260504192115 | 77 | 194 | 15.0 | 18.0 | 0.00 | 0.00 | 0.00 | 48 | 1009.2 |
| 20260504191614 | 78 | 183 | 13.0 | 18.0 | 0.00 | 0.00 | 0.00 | 48 | 1009.2 |
| 20260504191109 | 78 | 157 | 17.0 | 22.0 | 0.00 | 0.00 | 0.00 | 47 | 1009.2 |
| 20260504190606 | 78 | 189 | 11.0 | 22.0 | 0.00 | 0.00 | 0.00 | 47 | 1009.3 |
| 20260504185559 | 77 | 201 | 12.0 | 22.0 | 0.00 | 0.00 | 0.00 | 48 | 1009.5 |
| 20260504185055 | 77 | 195 | 10.0 | 22.0 | 0.00 | 0.00 | 0.00 | 49 | 1009.3 |
| 20260504184551 | 77 | 170 | 13.0 | 19.0 | 0.00 | 0.00 | 0.00 | 49 | 1009.5 |
| 20260504184046 | 77 | 202 | 14.0 | 21.0 | 0.00 | 0.00 | 0.00 | 47 | 1009.7 |
| 20260504183544 | 76 | 164 | 15.0 | 22.0 | 0.00 | 0.00 | 0.00 | 48 | 1009.6 |
| 20260504183042 | 76 | 164 | 16.0 | 21.0 | 0.00 | 0.00 | 0.00 | 49 | 1009.9 |
| 20260504182538 | 75 | 183 | 14.0 | 21.0 | 0.00 | 0.00 | 0.00 | 48 | 1009.9 |
| 20260504182036 | 75 | 158 | 14.0 | 25.0 | 0.00 | 0.00 | 0.00 | 49 | 1010.1 |
| 20260504181533 | 76 | 180 | 15.0 | 24.0 | 0.00 | 0.00 | 0.00 | 49 | 1010.0 |
| 20260504181031 | 76 | 145 | 17.0 | 21.0 | 0.00 | 0.00 | 0.00 | 48 | 1010.2 |
| 20260504180530 | 75 | 169 | 11.0 | 18.0 | 0.00 | 0.00 | 0.00 | 48 | 1010.3 |
| 20260504180028 | 76 | 179 | 14.0 | 22.0 | 0.00 | 0.00 | 0.00 | 48 | 1010.2 |
| 20260504175525 | 76 | 155 | 12.0 | 16.0 | 0.00 | 0.00 | 0.00 | 49 | 1010.4 |
| 20260504175022 | 75 | 173 | 16.0 | 19.0 | 0.00 | 0.00 | 0.00 | 50 | 1010.6 |
| 20260504174520 | 75 | 152 | 14.0 | 18.0 | 0.00 | 0.00 | 0.00 | 50 | 1010.4 |
| 20260504174016 | 75 | 180 | 10.0 | 23.0 | 0.00 | 0.00 | 0.00 | 50 | 1010.5 |
| 20260504173513 | 74 | 164 | 16.0 | 19.0 | 0.00 | 0.00 | 0.00 | 50 | 1011.0 |
| 20260504173011 | 75 | 150 | 9.0 | 19.0 | 0.00 | 0.00 | 0.00 | 51 | 1011.0 |
| 20260504172507 | 74 | 192 | 10.0 | 14.0 | 0.00 | 0.00 | 0.00 | 51 | 1010.8 |
| 20260504172003 | 74 | 167 | 9.0 | 19.0 | 0.00 | 0.00 | 0.00 | 51 | 1011.0 |
| 20260504171500 | 74 | 183 | 11.0 | 16.0 | 0.00 | 0.00 | 0.00 | 51 | 1011.2 |
| 20260504170957 | 74 | 198 | 12.0 | 19.0 | 0.00 | 0.00 | 0.00 | 50 | 1011.3 |
| 20260504170453 | 74 | 204 | 15.0 | 21.0 | 0.00 | 0.00 | 0.00 | 50 | 1011.4 |
| 20260504160413 | 71 | 195 | 19.0 | 24.0 | 0.00 | 0.00 | 0.00 | 51 | 1011.7 |
| 20260504150837 | 69 | 209 | 13.0 | 15.0 | 0.00 | 0.00 | 0.00 | 61 | 1012.2 |
| 20260504150334 | 68 | 152 | 11.0 | 17.0 | 0.00 | 0.00 | 0.00 | 63 | 1012.3 |